TimeCDT,TemperatureF,Dew PointF,Humidity,Sea Level PressureIn,VisibilityMPH,Wind Direction,Wind SpeedMPH,Gust SpeedMPH,PrecipitationIn,Events,Conditions,WindDirDegrees,DateUTC
12:53 AM,84.9,71.1,63,30.09,10.0,South,3.5,-,N/A,,Clear,180,2013-07-18 05:53:00
1:53 AM,82.9,71.1,67,30.08,10.0,SW,6.9,-,N/A,,Clear,220,2013-07-18 06:53:00
2:53 AM,82.0,71.1,69,30.08,10.0,SW,6.9,-,N/A,,Partly Cloudy,220,2013-07-18 07:53:00
3:53 AM,81.0,71.1,72,30.07,10.0,SW,4.6,-,N/A,,Partly Cloudy,220,2013-07-18 08:53:00
4:53 AM,80.1,71.1,74,30.05,10.0,SSW,4.6,-,N/A,,Scattered Clouds,210,2013-07-18 09:53:00
5:53 AM,80.1,70.0,71,30.04,10.0,SW,5.8,-,N/A,,Scattered Clouds,220,2013-07-18 10:53:00
6:53 AM,81.0,70.0,69,30.03,10.0,SW,8.1,-,N/A,,Clear,220,2013-07-18 11:53:00
7:53 AM,82.9,70.0,65,30.01,10.0,SW,10.4,-,N/A,,Scattered Clouds,230,2013-07-18 12:53:00
8:53 AM,84.9,70.0,61,30.00,10.0,SW,11.5,-,N/A,,Partly Cloudy,220,2013-07-18 13:53:00
9:53 AM,87.1,70.0,57,29.99,10.0,SW,13.8,-,N/A,,Partly Cloudy,220,2013-07-18 14:53:00
10:53 AM,89.1,70.0,53,29.97,10.0,SW,12.7,18.4,N/A,,Partly Cloudy,220,2013-07-18 15:53:00
11:53 AM,90.0,70.0,52,29.95,10.0,SW,15.0,25.3,N/A,,Partly Cloudy,230,2013-07-18 16:53:00
12:53 PM,91.9,69.1,47,29.93,10.0,SSW,17.3,27.6,N/A,,Scattered Clouds,210,2013-07-18 17:53:00
1:53 PM,93.0,68.0,44,29.91,10.0,SW,17.3,27.6,N/A,,Partly Cloudy,230,2013-07-18 18:53:00
2:53 PM,93.0,69.1,45,29.88,10.0,SSW,16.1,27.6,N/A,,Partly Cloudy,210,2013-07-18 19:53:00
3:53 PM,93.9,68.0,43,29.86,10.0,SW,20.7,31.1,N/A,,Scattered Clouds,220,2013-07-18 20:53:00
4:53 PM,93.9,66.9,41,29.83,10.0,SW,21.9,29.9,N/A,,Scattered Clouds,220,2013-07-18 21:53:00
5:53 PM,93.9,68.0,43,29.81,10.0,SSW,16.1,29.9,N/A,,Scattered Clouds,200,2013-07-18 22:53:00
6:53 PM,93.0,69.1,45,29.79,10.0,SW,13.8,26.5,N/A,,Scattered Clouds,220,2013-07-18 23:53:00
7:53 PM,91.0,69.1,48,29.78,10.0,SW,11.5,23.0,N/A,,Partly Cloudy,220,2013-07-19 00:53:00
8:53 PM,89.1,69.1,52,29.77,10.0,SW,13.8,-,N/A,,Partly Cloudy,220,2013-07-19 01:53:00
9:53 PM,88.0,69.1,53,29.77,10.0,SW,13.8,-,N/A,,Partly Cloudy,220,2013-07-19 02:53:00
10:53 PM,87.1,68.0,53,29.76,10.0,SSW,12.7,-,N/A,,Clear,210,2013-07-19 03:53:00
11:53 PM,86.0,69.1,57,29.75,10.0,SSW,15.0,21.9,N/A,,Partly Cloudy,210,2013-07-19 04:53:00